+ View the NASA Portal
+ Center for Near-Earth Object Studies
IMPORTANT:
The SSD Announcement email list is now available. Major changes are coming in the near future, including possible hostname and/or URL changes. To be notified of such changes, subscribe to this email list.
Please visit
this page
for more details.
Don't show this message again
JPL Small-Body Database Browser
Search:
[
help
]
74924 (1999 TF151)
Classification:
Main-belt Asteroid
SPK-ID:
2074924
[
Ephemeris
|
Orbit Diagram
|
Orbital Elements
|
Mission Design
|
Physical Parameters
|
Discovery Circumstances
]
[ show orbit diagram ]
Orbital Elements at Epoch 2458600.5 (2019-Apr-27.0) TDB
Reference:
JPL 23
(heliocentric ecliptic J2000)
Element
Value
Uncertainty (1-sigma)
Units
e
.06156759128944861
3.3178e-08
a
2.330771924363756
9.4393e-09
au
q
2.187271911135606
7.6499e-08
au
i
7.165649804220746
4.7574e-06
deg
node
48.10752947348505
2.9679e-05
deg
peri
90.50595697582831
5.1233e-05
deg
M
67.20187552497926
4.0202e-05
deg
t
p
2458357.879782838906
(2018-Aug-27.37978284)
0.00014522
TDB
period
1299.714888843066
3.56
7.8955e-06
2.162e-08
d
yr
n
.2769838239834677
1.6826e-09
deg/d
Q
2.474271937591905
1.002e-08
au
Orbit Determination Parameters
# obs. used (total)
1104
data-arc span
7179 days (19.66 yr)
first obs. used
1999-09-14
last obs. used
2019-05-11
planetary ephem.
DE431
SB-pert. ephem.
SB431-N16
condition code
0
norm. resid. RMS
.50625
source
ORB
producer
Otto Matic
solution date
2019-May-30 05:42:13
Additional Information
Earth MOID
= 1.21468 au
Jupiter MOID
= 2.53797 au
T_jup
= 3.558
[ show covariance matrix ]
[
Ephemeris
|
Orbit Diagram
|
Orbital Elements
|
Mission Design
|
Physical Parameters
|
Discovery Circumstances
]
Physical Parameter Table
Parameter
Symbol
Value
Units
Sigma
Reference
Notes
absolute magnitude
H
15.3
n/a
MPO337823
74924 (1999 TF151)
Discovered 1999-Oct-07 by LINEAR at Socorro
Reference:
20040415/Numbers.arc
Last Updated:
2004-04-19
[
Ephemeris
|
Orbit Diagram
|
Orbital Elements
|
Mission Design
|
Physical Parameters
|
Discovery Circumstances
]
2019-Dec-10 16:42 UT
(server date/time)
Site Manager:
Ryan S. Park
Webmaster
:
Alan B. Chamberlin